Snyder, TX

8:20 AM CDT on September 22, 2017 (GMT -0500)
Winston

Weather History for KSNK - May, 2013

Change the Weather History Date:

Sunday, May 5, 2013

  Actual Average Record
Temperature  
Mean Temperature 56 °F -  
Max Temperature 72 °F 80 °F 102 °F (1947)
Min Temperature 41 °F 51 °F 37 °F (1979)
Degree Days  
Heating Degree Days 8    
Growing Degree Days 6 (Base 50)    
Moisture  
Dew Point 27 °F    
Average Humidity 33    
Maximum Humidity 62    
Minimum Humidity 15    
Precipitation  
Precipitation 0.00 in - - ()
Sea Level Pressure  
Sea Level Pressure 30.14 in    
Wind  
Wind Speed 8 mph (NE)    
Max Wind Speed 13 mph    
Max Gust Speed 20 mph    
Visibility 10 miles    
Events      
Averages and records for this station are not official NWS values.
T = Trace of Precipitation, MM = Missing Value Source: NWS Daily Summary

Daily Weather History Graph

Daily Weather History Graph

Search for Another Location

Airport or City:

Trip Planner

Search our weather history database for the weather conditions in past years. The results will help you decide how hot, cold, wet, or windy it might be!

Date:

Astronomy

May. 05, 2013 Rise Set
Actual Time 6:52 AM CDT 8:28 PM CDT
Civil Twilight 6:26 AM CDT 8:55 PM CDT
Nautical Twilight 5:54 AM CDT 9:27 PM CDT
Astronomical Twilight 5:21 AM CDT 10:00 PM CDT
Moon 4:10 AM CDT (5/5) 4:42 PM CDT (5/5)
Length of Visible Light 14h 28m
Length of Day
13h 35m
Waning Crescent, 18% of the Moon is Illuminated
May 5
Waning Crescent
May 9
New
May 17
First Quarter
May 24
Full
May 31
Last Quarter

Hourly Weather History & Observations

Time (CDT) Temp. Windchill Dew Point Humidity Pressure Visibility Wind Dir Wind Speed Gust Speed Precip Events Conditions
12:15 AM 61.5 °F - 18.1 °F 19% 30.08 in 10.0 mi NNE 10.4 mph - N/A   Clear
12:35 AM 60.8 °F - 17.6 °F 19% 30.08 in 10.0 mi NE 9.2 mph 18.4 mph N/A   Clear
12:55 AM 59.7 °F - 16.2 °F 18% 30.09 in 10.0 mi NE 11.5 mph - N/A   Clear
1:15 AM 59.4 °F - 12.4 °F 16% 30.09 in 10.0 mi NE 11.5 mph 19.6 mph N/A   Clear
1:35 AM 58.8 °F - 10.9 °F 15% 30.09 in 10.0 mi NE 10.4 mph - N/A   Clear
1:55 AM 57.0 °F - 11.3 °F 16% 30.09 in 10.0 mi NE 10.4 mph - N/A   Clear
2:15 AM 56.3 °F - 13.6 °F 19% 30.09 in 10.0 mi NE 9.2 mph - N/A   Clear
2:35 AM 54.9 °F - 14.0 °F 20% 30.09 in 10.0 mi NE 8.1 mph - N/A   Clear
2:55 AM 54.5 °F - 15.1 °F 21% 30.09 in 10.0 mi NE 8.1 mph - N/A   Clear
3:15 AM 54.5 °F - 16.0 °F 22% 30.10 in 10.0 mi NE 8.1 mph - N/A   Clear
3:35 AM 54.5 °F - 17.2 °F 23% 30.10 in 10.0 mi NE 10.4 mph - N/A   Clear
3:55 AM 53.1 °F - 17.2 °F 24% 30.11 in 10.0 mi NE 11.5 mph - N/A   Clear
4:15 AM 51.1 °F - 19.8 °F 29% 30.12 in 10.0 mi NE 12.7 mph - N/A   Clear
4:35 AM 49.3 °F - 24.8 °F 38% 30.13 in 10.0 mi NE 10.4 mph - N/A   Clear
4:55 AM 49.3 °F - 29.7 °F 47% 30.13 in 10.0 mi NE 10.4 mph - N/A   Clear
5:15 AM 49.3 °F - 31.8 °F 51% 30.14 in 10.0 mi NE 8.1 mph - N/A   Clear
5:35 AM 47.3 °F - 31.6 °F 55% 30.15 in 10.0 mi Calm Calm - N/A   Clear
5:55 AM 46.8 °F - 32.0 °F 57% 30.16 in 7.0 mi Calm Calm - N/A   Clear
6:15 AM 45.1 °F - 31.1 °F 58% 30.16 in 10.0 mi Calm Calm - N/A   Clear
6:35 AM 43.7 °F 42.1 °F 30.9 °F 61% 30.16 in 10.0 mi North 3.5 mph - N/A   Clear
6:55 AM 42.8 °F - 30.4 °F 62% 30.17 in 10.0 mi Calm Calm - N/A   Clear
7:15 AM 42.3 °F - 29.8 °F 61% 30.18 in 10.0 mi Calm Calm - N/A   Clear
7:35 AM 41.9 °F 40.0 °F 29.8 °F 62% 30.19 in 10.0 mi North 3.5 mph - N/A   Clear
7:55 AM 45.0 °F 43.5 °F 32.0 °F 60% 30.21 in 10.0 mi NNW 3.5 mph - N/A   Clear
8:15 AM 47.1 °F - 33.6 °F 59% 30.21 in 10.0 mi North 5.8 mph - N/A   Clear
8:35 AM 49.1 °F - 36.0 °F 61% 30.22 in 10.0 mi NNE 4.6 mph - N/A   Unknown
8:55 AM 49.3 °F - 36.0 °F 60% 30.22 in 10.0 mi NNE 8.1 mph - N/A   Unknown
9:15 AM 50.5 °F - 36.5 °F 59% 30.23 in 10.0 mi NE 9.2 mph - N/A   Clear
9:35 AM 51.8 °F - 36.5 °F 56% 30.23 in 10.0 mi NNE 8.1 mph - N/A   Clear
9:55 AM 54.0 °F - 36.3 °F 51% 30.24 in 10.0 mi NNE 11.5 mph 16.1 mph N/A   Clear
10:15 AM 54.5 °F - 34.9 °F 48% 30.23 in 10.0 mi NNE 8.1 mph - N/A   Clear
10:35 AM 55.8 °F - 33.6 °F 43% 30.23 in 10.0 mi NNE 10.4 mph - N/A   Clear
10:55 AM 56.8 °F - 33.4 °F 41% 30.23 in 10.0 mi NNE 9.2 mph - N/A   Clear
11:15 AM 57.7 °F - 32.4 °F 38% 30.24 in 10.0 mi NNE 11.5 mph 17.3 mph N/A   Clear
11:35 AM 59.4 °F - 31.8 °F 35% 30.23 in 10.0 mi NNE 10.4 mph - N/A   Clear
11:55 AM 59.7 °F - 30.2 °F 33% 30.23 in 10.0 mi North 10.4 mph 16.1 mph N/A   Clear
12:15 PM 60.8 °F - 30.4 °F 32% 30.22 in 10.0 mi North 9.2 mph 17.3 mph N/A   Clear
12:35 PM 61.9 °F - 29.8 °F 30% 30.21 in 10.0 mi NNE 11.5 mph 17.3 mph N/A   Clear
1:15 PM 63.3 °F - 28.4 °F 27% 30.20 in 10.0 mi NNE 4.6 mph - N/A   Clear
1:35 PM 66.6 °F - 28.4 °F 24% 30.19 in 10.0 mi North 3.5 mph 16.1 mph N/A   Clear
1:55 PM 67.6 °F - 27.7 °F 22% 30.17 in 10.0 mi NE 12.7 mph 17.3 mph N/A   Clear
2:15 PM 69.1 °F - 28.0 °F 22% 30.17 in 10.0 mi NW 5.8 mph - N/A   Clear
2:35 PM 69.3 °F - 25.9 °F 20% 30.16 in 10.0 mi NNW 8.1 mph - N/A   Clear
2:55 PM 69.4 °F - 23.2 °F 17% 30.16 in 10.0 mi North 5.8 mph 16.1 mph N/A   Clear
3:15 PM 69.6 °F - 23.2 °F 17% 30.15 in 10.0 mi NE 8.1 mph - N/A   Clear
3:35 PM 70.7 °F - 22.3 °F 16% 30.14 in 10.0 mi Calm Calm - N/A   Clear
3:55 PM 71.1 °F - 21.9 °F 16% 30.12 in 10.0 mi Calm Calm - N/A   Clear
4:15 PM 72.0 °F - 22.5 °F 16% 30.12 in 10.0 mi Calm Calm - N/A   Clear
4:35 PM 72.3 °F - 23.4 °F 16% 30.11 in 10.0 mi Calm Calm - N/A   Clear
4:55 PM 71.6 °F - 24.1 °F 17% 30.10 in 10.0 mi NNW 5.8 mph - N/A   Clear
5:15 PM 72.0 °F - 25.5 °F 18% 30.10 in 10.0 mi NE 4.6 mph - N/A   Clear
5:35 PM 72.5 °F - 27.0 °F 18% 30.09 in 7.0 mi North 6.9 mph - N/A   Clear
5:55 PM 72.3 °F - 27.0 °F 18% 30.09 in 10.0 mi NNW 3.5 mph - N/A   Clear
6:15 PM 72.0 °F - 26.2 °F 18% 30.09 in 10.0 mi NNW 5.8 mph - N/A   Clear
6:35 PM 72.0 °F - 27.7 °F 19% 30.09 in 10.0 mi NE 3.5 mph - N/A   Clear
7:15 PM 72.0 °F - 30.6 °F 22% 30.09 in 10.0 mi ENE 4.6 mph - N/A   Clear
7:35 PM 71.1 °F - 30.7 °F 22% 30.09 in 10.0 mi Calm Calm - N/A   Clear
7:55 PM 70.7 °F - 31.3 °F 23% 30.09 in 10.0 mi ENE 4.6 mph - N/A   Clear
8:15 PM 70.3 °F - 31.8 °F 24% 30.08 in 10.0 mi East 8.1 mph - N/A   Clear
8:35 PM 69.4 °F - 32.4 °F 25% 30.08 in 10.0 mi East 6.9 mph - N/A   Clear
8:55 PM 69.4 °F - 33.6 °F 27% 30.09 in 10.0 mi East 6.9 mph - N/A   Clear
9:35 PM 68.4 °F - 33.8 °F 28% 30.10 in 10.0 mi ENE 5.8 mph - N/A   Clear
9:55 PM 66.4 °F - 32.9 °F 29% 30.10 in 10.0 mi East 4.6 mph - N/A   Clear
10:15 PM 63.7 °F - 32.2 °F 31% 30.11 in 10.0 mi East 5.8 mph - N/A   Clear
10:35 PM 62.4 °F - 32.0 °F 32% 30.11 in 10.0 mi East 5.8 mph - N/A   Clear
10:55 PM 61.2 °F - 32.0 °F 33% 30.12 in 10.0 mi East 5.8 mph - N/A   Clear
11:15 PM 59.7 °F - 32.2 °F 35% 30.12 in 10.0 mi East 5.8 mph - N/A   Clear
11:35 PM 59.4 °F - 32.9 °F 37% 30.12 in 10.0 mi ENE 6.9 mph - N/A   Clear
11:55 PM 59.4 °F - 34.3 °F 39% 30.11 in 10.0 mi ENE 8.1 mph - N/A   Clear